Simultaneous Nadir Overpasses (SNOs) Predictions

Prediction of SNOs between NOAA-20 and AQUA Satellite Orbit:

Table of predicted SNOs for the next 14.0 days since TLE Epoch: 12/7/2018
Index Date (NOAA-20) Time (NOAA-20) Lat,Lon (NOAA-20) SZA (NOAA-20 ) Date (AQUA) Time (AQUA) Lat,Lon (AQUA) SZA (AQUA ) Distance(km) Time Diff (sec)
1 12/09/2018 14:29:30 76.06,-158.15 118.98 12/09/2018 14:29:46 76.05,-158.24 118.99 2.70 16
2 12/09/2018 15:20:02 -76.69, 11.43 61.74 12/09/2018 15:19:00 -76.69, 11.50 61.70 1.96 62
3 12/12/2018 05:56:02 -75.06, 147.13 59.62 12/12/2018 05:57:09 -75.06, 147.14 59.69 0.34 67
4 12/12/2018 06:46:24 76.08, -42.32 119.25 12/12/2018 06:46:14 76.09, -42.26 119.24 1.76 10
5 12/14/2018 22:12:44 -75.64, -95.32 60.02 12/14/2018 22:13:26 -75.63, -95.38 60.05 1.90 42
6 12/14/2018 23:03:08 76.55, 75.15 118.94 12/14/2018 23:02:33 76.55, 75.14 118.98 0.35 35
7 12/17/2018 14:29:35 -75.75, 20.81 59.96 12/17/2018 14:29:51 -75.75, 20.85 59.98 1.11 16
8 12/17/2018 15:19:52 76.96,-167.46 118.64 12/17/2018 15:18:52 76.95,-167.56 118.72 2.99 60
9 12/20/2018 05:56:00 74.96, -33.13 121.06 12/20/2018 05:57:08 74.96, -33.11 120.99 0.62 68
10 12/20/2018 06:46:16 -76.36, 138.68 60.52 12/20/2018 06:46:07 -76.35, 138.60 60.49 2.30 9




NCC Satellite Simultaneous Nadir Overpasses (SNOs) Prediction Service
